Regional Weather Roundup
Issued by NWS

Home | Current Version | Previous Version | Graphics & Text | Print | Product List | Glossary On
Versions: 1 2 3 4 5 6 7 8 9 10 11 12 13 14 15 16 17 18 19 20 21 22 23 24 25 26 27 28 29 30 31 32 33 34 35 36 37 38 39 40 41 42 43 44 45 46 47 48 49 50
000
ASUS43 KBIS 251002
RWRND

NORTH DAKOTA REGIONAL WEATHER ROUNDUP
NATIONAL WEATHER SERVICE BISMARCK ND
500 AM CDT WED APR 25 2018

NOTE: "FAIR" INDICATES FEW OR NO CLOUDS BELOW 12,000 FEET WITH NO
SIGNIFICANT WEATHER AND/OR OBSTRUCTIONS TO VISIBILITY.


NDZ001>003-009>011-017-251100-
NORTHWEST NORTH DAKOTA

CITY           SKY/WX    TMP DP  RH WIND       PRES   REMARKS
WILLISTON      MOCLDY    41  32  70 SW10      30.15F
MINOT          CLEAR     44  30  57 SW12      30.15F
MINOT AFB      CLEAR     43  30  61 SW14      30.12F
$$

NDZ018>021-031>035-040>046-251100-
SOUTHWEST NORTH DAKOTA

CITY           SKY/WX    TMP DP  RH WIND       PRES   REMARKS
BISMARCK       CLEAR     32  27  81 CALM      30.26F
DICKINSON      CLEAR     36  27  69 SW13      30.21F
GARRISON         N/A     33  28  81 SW3       30.20F
HETTINGER ARPT CLEAR     29  23  78 SW7       30.27F
$$

NDZ004>008-012>016-024-026-027-054-251100-
NORTHEAST NORTH DAKOTA

CITY           SKY/WX    TMP DP  RH WIND       PRES   REMARKS
GRAND FORKS    FAIR      31  29  92 S9        30.23F
GRND FRKS AFB  FAIR      34  27  75 S10       30.22F
DEVILS LAKE    FAIR      35  27  72 SW12      30.20F
$$

NDZ022-023-025-028>030-036>039-047>053-251100-
SOUTHEAST NORTH DAKOTA

CITY           SKY/WX    TMP DP  RH WIND       PRES   REMARKS
FARGO          FAIR      31  28  89 S6        30.27F
JAMESTOWN      CLEAR     33  27  78 SW8       30.25F
$$




USA.gov is the U.S. government's official web portal to all federal, state and local government web resources and services.